Location: Unspecified
(0.0000°N, 0.0000°E)
Time: 17:50:45
(UTC+00:00)

STARLINK-34252 - Visible Passes

Search period start: 08 March 2026 00:00
Search period end: 18 March 2026 00:00
Orbit: 482 x 484 km, 43.0° (Epoch: 8 March)

Date Brightness Start Highest point End Pass type
(mag) Time Alt. Az. Time Alt. Az. Time Alt. Az.
10 Mar ? 19:58:03 10° SSW 19:58:46 14° SSW 19:58:46 14° SSW visible
11 Mar ? 19:30:04 10° SSW 19:32:50 34° SSE 19:32:50 34° SSE visible
12 Mar ? 19:02:01 10° SSW 19:05:31 37° SE 19:06:57 26° E visible
13 Mar ? 18:33:52 10° SSW 18:37:19 35° SE 18:40:46 10° ENE visible
13 Mar ? 20:14:05 10° WNW 20:15:22 13° WNW 20:15:22 13° WNW visible
14 Mar ? 19:45:39 10° W 19:47:49 15° NW 19:49:29 12° NNW visible
15 Mar ? 19:17:07 10° W 19:19:27 16° NW 19:21:46 10° N visible
16 Mar ? 05:23:08 10° NNW 05:26:25 29° NE 05:29:45 10° ESE visible
16 Mar ? 18:48:32 10° W 18:51:00 17° NW 18:53:26 10° N visible
17 Mar ? 04:54:48 10° NNW 04:57:56 28° NE 05:01:12 10° ESE visible
